Find Starlink 33967

NORAD ID: 64027 Int'l Des: 2025-102 Owner: SPXS Country: US Constellation: starlink operational
LEOCIRCULAR

現在のビュー

3D地球を読み込み中...

Starlink 33967について

説明を読み込み中...

次回通過

Passes for default location (London). Set your location on the main map for personalized predictions.

高度履歴

Loading altitude history...

軌道要素

1 64027U 25102F 26146.07415945 .00001816 00000-0 15991-3 0 9997
2 64027 70.0004 279.3369 0002535 272.9830 87.1039 14.98335605 57483
Epoch: May 26, 2026 • Age: 10 hours

現在のステータス

高度 574.2 km
速度 7.57 km/s
衛星直下点 4.77°N, 29.87°E
打ち上げ日 May 16, 2025
運用期間 1 years
タイプ internet

技術仕様

分類 Payload
質量 575.00 kg
乾燥質量 530.00 kg
総質量 575.00 kg
長さ 0.30 m
直径 4.10 m
スパン 29.00 m
形状 Box + pan
製造者 SPXS
バスタイプ Starlink V2MO
フェーズステータス In Orbit
所有者/国 SPXS/US

Most Searched